Weather History for Ely, NV

Change the Weather History Date:

Friday, August 1, 2014

  Actual Average Record
Temperature  
Mean Temperature 66 °F 68 °F  
Max Temperature 88 °F 88 °F 95 °F (1996)
Min Temperature 43 °F 49 °F 38 °F (1975)
Degree Days  
Heating Degree Days 0 0  
Month to date heating degree days 0 0  
Since 1 June heating degree days 140 198  
Since 1 July heating degree days 0 23  
Cooling Degree Days 1 4  
Month to date cooling degree days 1 4  
Year to date cooling degree days 228 139  
Since 1 June cooling degree days 226 138  
Growing Degree Days 16 (Base 50)    
Moisture  
Dew Point 39 °F    
Average Humidity 52    
Maximum Humidity 89    
Minimum Humidity 15    
Precipitation  
Precipitation 0.00 in 0.03 in 1.03 in (2005)
Month to date precipitation 0.00 0.03  
Year to date precipitation 4.78 5.77  
Snow  
Snow 0.00 in 0.00 in 0.00 in (1893)
Month to date snowfall 0.0 0.0  
Since 1 June snowfall T 0.1  
Since 1 July snowfall 0.0 0.0  
Snow Depth 0.00 in    
Sea Level Pressure  
Sea Level Pressure 29.99 in    
Wind  
Wind Speed 7 mph (NNW)    
Max Wind Speed 15 mph    
Max Gust Speed 23 mph    
Visibility 10 miles    
Events      
T = Trace of Precipitation, MM = Missing Value Source: NWS Daily Summary

Daily Weather History Graph

Daily Weather History Graph

Search for Another Location

Airport:

Trip Planner

Search our weather history database for the weather conditions in past years. The results will help you decide how hot, cold, wet, or windy it might be!

Date:

Astronomy

Aug. 01, 2014 Rise Set
Actual Time 5:39 AM PDT 7:51 PM PDT
Civil Twilight 5:09 AM PDT 8:21 PM PDT
Nautical Twilight 4:32 AM PDT 8:57 PM PDT
Astronomical Twilight 3:52 AM PDT 9:37 PM PDT
Moon 11:05 AM PDT (8/1) 10:40 PM PDT (8/1)
Length of Visible Light 15h 11m
Length of Day
14h 11m
Waxing Crescent, 28% of the Moon is Illuminated
Aug 1
Waxing Crescent
Aug 3
First Quarter
Aug 10
Full
Aug 17
Last Quarter
Aug 25
New

Hourly Weather History & Observations

Time (PDT) Temp. Windchill Dew Point Humidity Pressure Visibility Wind Dir Wind Speed Gust Speed Precip Events Conditions
12:53 AM 51.1 °F - 44.1 °F 77% 30.04 in 10.0 mi NNW 5.8 mph - N/A   Clear
1:53 AM 48.0 °F - 43.0 °F 83% 30.02 in 10.0 mi SW 5.8 mph - N/A   Clear
2:53 AM 46.9 °F - 42.1 °F 83% 30.03 in 10.0 mi South 9.2 mph - N/A   Clear
3:53 AM 46.9 °F - 42.1 °F 83% 30.05 in 10.0 mi SSE 8.1 mph - N/A   Clear
4:53 AM 45.0 °F 41.8 °F 41.0 °F 86% 30.06 in 10.0 mi South 5.8 mph - N/A   Clear
5:53 AM 44.1 °F 39.0 °F 39.9 °F 85% 30.09 in 10.0 mi South 9.2 mph - N/A   Clear
6:53 AM 52.0 °F - 43.0 °F 71% 30.06 in 10.0 mi South 9.2 mph - N/A   Clear
7:53 AM 59.0 °F - 45.0 °F 60% 30.06 in 10.0 mi South 6.9 mph - N/A   Clear
8:53 AM 64.9 °F - 45.0 °F 48% 30.05 in 10.0 mi Calm Calm - N/A   Clear
9:53 AM 72.0 °F - 44.1 °F 37% 30.03 in 10.0 mi Variable 3.5 mph - N/A   Clear
10:53 AM 75.9 °F - 42.1 °F 30% 30.02 in 10.0 mi North 9.2 mph - N/A   Clear
11:53 AM 81.0 °F - 37.9 °F 21% 30.00 in 10.0 mi NNE 9.2 mph - N/A   Clear
12:53 PM 82.9 °F - 37.0 °F 19% 29.99 in 10.0 mi NE 4.6 mph - N/A   Clear
1:53 PM 86.0 °F - 34.0 °F 16% 29.97 in 10.0 mi North 5.8 mph - N/A   Clear
3:53 PM 87.1 °F - 34.0 °F 15% 29.93 in 10.0 mi NNE 10.4 mph - N/A   Clear
4:53 PM 87.1 °F - 33.1 °F 15% 29.92 in 10.0 mi NNE 10.4 mph - N/A   Clear
5:53 PM 84.0 °F - 32.0 °F 15% 29.92 in 10.0 mi North 11.5 mph - N/A   Clear
6:53 PM 82.0 °F - 34.0 °F 18% 29.92 in 10.0 mi North 9.2 mph - N/A   Clear
7:53 PM 78.1 °F - 37.0 °F 23% 29.91 in 10.0 mi NNW 5.8 mph - N/A   Clear
8:53 PM 75.9 °F - 35.1 °F 23% 29.92 in 10.0 mi WNW 10.4 mph - N/A   Clear
9:53 PM 73.0 °F - 37.0 °F 27% 29.94 in 10.0 mi WNW 5.8 mph - N/A   Partly Cloudy
10:53 PM 73.0 °F - 37.9 °F 28% 29.95 in 10.0 mi West 8.1 mph - N/A   Mostly Cloudy
11:53 PM 70.0 °F - 43.0 °F 38% 29.98 in 10.0 mi West 6.9 mph 18.4 mph N/A   Partly Cloudy